| time (UTC) | temp F | wind direction | speed MPH | gust MPH | rain 1hr in | rain 24hr in | rain mn in | humidity % | barometer mb |
| 20260906222037 | 78 | 172 | 0.0 | 2.0 | 0.00 | 0.47 | 0.00 | 48 | 1013.9 |
| 20260906221536 | 78 | 247 | 0.0 | 7.0 | 0.00 | 0.47 | 0.00 | 48 | 1013.9 |
| 20260906221035 | 78 | 256 | 0.0 | 7.0 | 0.00 | 0.47 | 0.00 | 49 | 1013.9 |
| 20260906220536 | 78 | 229 | 0.0 | 3.0 | 0.00 | 0.47 | 0.00 | 47 | 1014.0 |
| 20260906220039 | 78 | 132 | 0.0 | 4.0 | 0.00 | 0.47 | 0.00 | 47 | 1013.8 |
| 20260906215535 | 79 | 177 | 0.0 | 3.0 | 0.00 | 0.47 | 0.00 | 47 | 1013.7 |
| 20260906215035 | 79 | 120 | 1.0 | 3.0 | 0.00 | 0.47 | 0.00 | 46 | 1013.8 |
| 20260906214542 | 79 | 113 | 1.0 | 3.0 | 0.00 | 0.47 | 0.00 | 45 | 1014.0 |
| 20260906214035 | 79 | 266 | 1.0 | 4.0 | 0.00 | 0.47 | 0.00 | 47 | 1014.0 |
| 20260906213535 | 79 | 360 | 1.0 | 4.0 | 0.00 | 0.47 | 0.00 | 46 | 1013.9 |
| 20260906213035 | 79 | 160 | 0.0 | 3.0 | 0.00 | 0.47 | 0.00 | 45 | 1013.9 |
| 20260906212538 | 79 | 107 | 1.0 | 4.0 | 0.00 | 0.47 | 0.00 | 46 | 1014.1 |
| 20260906212035 | 79 | 104 | 1.0 | 4.0 | 0.00 | 0.47 | 0.00 | 45 | 1014.1 |
| 20260906211533 | 80 | 185 | 1.0 | 4.0 | 0.00 | 0.47 | 0.00 | 42 | 1014.1 |
| 20260906211035 | 80 | 139 | 0.0 | 8.0 | 0.00 | 0.47 | 0.00 | 44 | 1014.1 |
| 20260906210535 | 80 | 175 | 1.0 | 8.0 | 0.00 | 0.47 | 0.00 | 43 | 1014.1 |
| 20260906210036 | 80 | 290 | 0.0 | 10.0 | 0.00 | 0.47 | 0.00 | 43 | 1014.1 |
| 20260906205533 | 80 | 130 | 2.0 | 10.0 | 0.00 | 0.47 | 0.00 | 43 | 1014.0 |
| 20260906205032 | 80 | 281 | 0.0 | 4.0 | 0.00 | 0.47 | 0.00 | 45 | 1014.0 |
| 20260906204533 | 80 | 213 | 0.0 | 6.0 | 0.00 | 0.47 | 0.00 | 45 | 1014.0 |
| 20260906204032 | 80 | 265 | 1.0 | 6.0 | 0.00 | 0.47 | 0.00 | 42 | 1014.0 |
| 20260906203532 | 80 | 219 | 1.0 | 4.0 | 0.00 | 0.47 | 0.00 | 43 | 1014.0 |
| 20260906203032 | 80 | 255 | 1.0 | 5.0 | 0.00 | 0.47 | 0.00 | 42 | 1014.0 |
| 20260906202532 | 80 | 125 | 1.0 | 5.0 | 0.00 | 0.47 | 0.00 | 42 | 1014.0 |
| 20260906202034 | 80 | 113 | 1.0 | 3.0 | 0.00 | 0.47 | 0.00 | 44 | 1014.1 |
| 20260906201531 | 80 | 105 | 0.0 | 3.0 | 0.00 | 0.47 | 0.00 | 42 | 1014.0 |
| 20260906201033 | 81 | 223 | 1.0 | 6.0 | 0.00 | 0.47 | 0.00 | 42 | 1014.1 |
| 20260906200528 | 81 | 142 | 0.0 | 4.0 | 0.00 | 0.47 | 0.00 | 45 | 1014.2 |
| 20260906200029 | 81 | 82 | 1.0 | 6.0 | 0.00 | 0.47 | 0.00 | 42 | 1014.1 |
| 20260906195528 | 81 | 82 | 2.0 | 6.0 | 0.00 | 0.47 | 0.00 | 45 | 1014.2 |
| 20260906195028 | 81 | 286 | 1.0 | 5.0 | 0.00 | 0.47 | 0.00 | 43 | 1014.1 |
| 20260906194537 | 81 | 272 | 1.0 | 6.0 | 0.00 | 0.47 | 0.00 | 41 | 1014.0 |
| 20260906194027 | 81 | 231 | 1.0 | 6.0 | 0.00 | 0.47 | 0.00 | 43 | 1014.0 |
| 20260906193527 | 81 | 261 | 1.0 | 3.0 | 0.00 | 0.47 | 0.00 | 44 | 1014.1 |
| 20260906193028 | 81 | 259 | 0.0 | 4.0 | 0.00 | 0.47 | 0.00 | 44 | 1014.1 |
| 20260906192528 | 81 | 277 | 1.0 | 4.0 | 0.00 | 0.47 | 0.00 | 45 | 1014.2 |
| 20260906192027 | 81 | 268 | 0.0 | 3.0 | 0.00 | 0.47 | 0.00 | 44 | 1014.2 |
| 20260906191526 | 81 | 342 | 0.0 | 4.0 | 0.00 | 0.47 | 0.00 | 44 | 1014.1 |
| 20260906191025 | 81 | 86 | 0.0 | 5.0 | 0.00 | 0.47 | 0.00 | 43 | 1014.1 |
| 20260906190525 | 81 | 139 | 0.0 | 7.0 | 0.00 | 0.47 | 0.00 | 44 | 1014.1 |
| 20260906190025 | 81 | 83 | 1.0 | 5.0 | 0.00 | 0.47 | 0.00 | 43 | 1014.3 |
| 20260906185527 | 81 | 318 | 1.0 | 4.0 | 0.00 | 0.47 | 0.00 | 42 | 1014.3 |
| 20260906185024 | 81 | 64 | 0.0 | 2.0 | 0.00 | 0.47 | 0.00 | 45 | 1014.1 |
| 20260906184534 | 81 | 62 | 0.0 | 5.0 | 0.00 | 0.47 | 0.00 | 49 | 1014.2 |
| 20260906184021 | 80 | 133 | 1.0 | 7.0 | 0.00 | 0.47 | 0.00 | 42 | 1014.3 |
| 20260906183521 | 80 | 288 | 1.0 | 7.0 | 0.00 | 0.47 | 0.00 | 45 | 1014.3 |
| 20260906183120 | 80 | 182 | 0.0 | 5.0 | 0.00 | 0.47 | 0.00 | 45 | 1014.3 |
| 20260906182520 | 80 | 141 | 1.0 | 4.0 | 0.00 | 0.47 | 0.00 | 44 | 1014.3 |
| 20260906182021 | 79 | 355 | 1.0 | 4.0 | 0.00 | 0.47 | 0.00 | 47 | 1014.3 |
| 20260906181543 | 79 | 42 | 1.0 | 5.0 | 0.00 | 0.47 | 0.00 | 49 | 1014.3 |
| 20260906181016 | 79 | 113 | 1.0 | 5.0 | 0.00 | 0.47 | 0.00 | 50 | 1014.3 |
| 20260906180517 | 79 | 290 | 1.0 | 7.0 | 0.00 | 0.47 | 0.00 | 53 | 1014.2 |
| 20260906180014 | 79 | 295 | 2.0 | 7.0 | 0.00 | 0.47 | 0.00 | 51 | 1014.3 |
| 20260906175514 | 79 | 59 | 1.0 | 4.0 | 0.00 | 0.47 | 0.00 | 53 | 1014.3 |
| 20260906175013 | 79 | 246 | 0.0 | 3.0 | 0.00 | 0.47 | 0.00 | 55 | 1014.3 |
| 20260906174516 | 79 | 316 | 1.0 | 4.0 | 0.00 | 0.47 | 0.00 | 54 | 1014.3 |
| 20260906174014 | 79 | 270 | 1.0 | 5.0 | 0.00 | 0.47 | 0.00 | 52 | 1014.4 |
| 20260906173513 | 79 | 302 | 1.0 | 10.0 | 0.00 | 0.47 | 0.00 | 54 | 1014.5 |
| 20260906173013 | 78 | 100 | 0.0 | 10.0 | 0.00 | 0.47 | 0.00 | 53 | 1014.4 |
| 20260906172514 | 79 | 313 | 0.0 | 4.0 | 0.00 | 0.47 | 0.00 | 55 | 1014.4 |
| 20260906172013 | 78 | 68 | 1.0 | 4.0 | 0.00 | 0.47 | 0.00 | 52 | 1014.4 |
| 20260906171513 | 79 | 166 | 0.0 | 5.0 | 0.00 | 0.47 | 0.00 | 54 | 1014.5 |
| 20260906171012 | 79 | 65 | 1.0 | 6.0 | 0.00 | 0.47 | 0.00 | 51 | 1014.5 |
| 20260906170513 | 79 | 244 | 1.0 | 6.0 | 0.00 | 0.47 | 0.00 | 54 | 1014.6 |
| 20260906170020 | 79 | 163 | 1.0 | 8.0 | 0.00 | 0.47 | 0.00 | 54 | 1014.6 |
| 20260906165515 | 79 | 63 | 2.0 | 8.0 | 0.00 | 0.47 | 0.00 | 51 | 1014.6 |
| 20260906165012 | 79 | 97 | 0.0 | 6.0 | 0.00 | 0.47 | 0.00 | 52 | 1014.7 |
| 20260906164514 | 79 | 312 | 0.0 | 5.0 | 0.00 | 0.47 | 0.00 | 51 | 1014.7 |
| 20260906164011 | 79 | 279 | 0.0 | 5.0 | 0.00 | 0.47 | 0.00 | 51 | 1014.7 |
| 20260906163509 | 79 | 130 | 1.0 | 7.0 | 0.00 | 0.47 | 0.00 | 53 | 1014.8 |
| 20260906163008 | 78 | 98 | 1.0 | 7.0 | 0.00 | 0.47 | 0.00 | 53 | 1014.8 |
| 20260906162510 | 78 | 183 | 0.0 | 6.0 | 0.00 | 0.47 | 0.00 | 57 | 1014.9 |
| 20260906162007 | 78 | 67 | 0.0 | 6.0 | 0.00 | 0.47 | 0.00 | 58 | 1015.0 |
| 20260906161508 | 77 | 10 | 2.0 | 5.0 | 0.00 | 0.47 | 0.00 | 55 | 1015.1 |
| 20260906161001 | 77 | 273 | 1.0 | 5.0 | 0.00 | 0.47 | 0.00 | 58 | 1015.1 |
| 20260906160501 | 77 | 229 | 2.0 | 5.0 | 0.00 | 0.47 | 0.00 | 58 | 1015.2 |
| 20260906160100 | 77 | 267 | 1.0 | 4.0 | 0.00 | 0.47 | 0.00 | 59 | 1015.1 |
| 20260906155558 | 77 | 153 | 1.0 | 5.0 | 0.00 | 0.47 | 0.00 | 62 | 1015.2 |
| 20260906155100 | 77 | 182 | 0.0 | 5.0 | 0.00 | 0.47 | 0.00 | 62 | 1015.2 |
| 20260906154556 | 76 | 109 | 1.0 | 6.0 | 0.00 | 0.47 | 0.00 | 62 | 1015.2 |
| 20260906154056 | 76 | 118 | 1.0 | 6.0 | 0.00 | 0.47 | 0.00 | 62 | 1015.2 |
| 20260906153553 | 76 | 244 | 1.0 | 4.0 | 0.00 | 0.47 | 0.00 | 63 | 1015.2 |
| 20260906153052 | 76 | 186 | 1.0 | 4.0 | 0.00 | 0.47 | 0.00 | 64 | 1015.2 |
| 20260906152550 | 75 | 178 | 0.0 | 6.0 | 0.00 | 0.47 | 0.00 | 63 | 1015.2 |
| 20260906152050 | 75 | 77 | 1.0 | 6.0 | 0.00 | 0.47 | 0.00 | 63 | 1015.0 |
| 20260906151548 | 74 | 225 | 1.0 | 5.0 | 0.00 | 0.47 | 0.00 | 66 | 1015.1 |
| 20260906151046 | 74 | 73 | 1.0 | 5.0 | 0.00 | 0.47 | 0.00 | 66 | 1015.1 |
| 20260906150549 | 74 | 221 | 1.0 | 4.0 | 0.00 | 0.47 | 0.00 | 68 | 1015.0 |
| 20260906150045 | 73 | 173 | 0.0 | 2.0 | 0.00 | 0.47 | 0.00 | 70 | 1015.1 |
| 20260906145542 | 73 | 251 | 0.0 | 5.0 | 0.00 | 0.47 | 0.00 | 70 | 1014.9 |
| 20260906145041 | 72 | 107 | 1.0 | 5.0 | 0.00 | 0.47 | 0.00 | 70 | 1014.7 |
| 20260906144540 | 72 | 263 | 0.0 | 6.0 | 0.00 | 0.47 | 0.00 | 74 | 1014.7 |
| 20260906144041 | 71 | 108 | 1.0 | 3.0 | 0.00 | 0.47 | 0.00 | 74 | 1014.6 |
| 20260906143537 | 70 | 96 | 0.0 | 3.0 | 0.00 | 0.47 | 0.00 | 76 | 1014.7 |
| 20260906143040 | 69 | 113 | 0.0 | 3.0 | 0.00 | 0.47 | 0.00 | 78 | 1014.8 |
| 20260906142534 | 69 | 144 | 0.0 | 3.0 | 0.00 | 0.47 | 0.00 | 83 | 1014.9 |
| 20260906142031 | 68 | 144 | 0.0 | 3.0 | 0.00 | 0.47 | 0.00 | 86 | 1014.8 |
| 20260906141531 | 68 | 225 | 0.0 | 2.0 | 0.00 | 0.47 | 0.00 | 89 | 1014.8 |
| 20260906141032 | 67 | 9 | 0.0 | 2.0 | 0.00 | 0.47 | 0.00 | 90 | 1014.7 |
| 20260906140530 | 67 | 38 | 0.0 | 3.0 | 0.00 | 0.47 | 0.00 | 90 | 1014.6 |
| 20260906140026 | 66 | 263 | 0.0 | 3.0 | 0.00 | 0.47 | 0.00 | 90 | 1014.5 |
| 20260906135524 | 66 | 138 | 0.0 | 2.0 | 0.00 | 0.47 | 0.00 | 90 | 1014.4 |
| 20260906135022 | 65 | 298 | 0.0 | 9.0 | 0.00 | 0.47 | 0.00 | 90 | 1014.5 |
| 20260906134521 | 65 | 60 | 1.0 | 9.0 | 0.00 | 0.47 | 0.00 | 90 | 1014.5 |
| 20260906134020 | 65 | 115 | 0.0 | 3.0 | 0.00 | 0.47 | 0.00 | 90 | 1014.6 |
| 20260906133518 | 65 | 153 | 0.0 | 4.0 | 0.00 | 0.47 | 0.00 | 90 | 1014.6 |
| 20260906133018 | 65 | 159 | 1.0 | 4.0 | 0.00 | 0.47 | 0.00 | 90 | 1014.6 |
| 20260906132517 | 65 | 264 | 0.0 | 5.0 | 0.00 | 0.47 | 0.00 | 90 | 1014.6 |
| 20260906132017 | 65 | 187 | 1.0 | 5.0 | 0.00 | 0.47 | 0.00 | 90 | 1014.5 |
| 20260906131617 | 65 | 153 | 0.0 | 1.0 | 0.00 | 0.47 | 0.00 | 90 | 1014.5 |
| 20260906131015 | 65 | 130 | 0.0 | 2.0 | 0.00 | 0.47 | 0.00 | 90 | 1014.4 |
| 20260906130516 | 65 | 130 | 0.0 | 2.0 | 0.00 | 0.47 | 0.00 | 90 | 1014.5 |
| 20260906130015 | 65 | 118 | 0.0 | 2.0 | 0.00 | 0.47 | 0.00 | 90 | 1014.4 |
| 20260906125514 | 65 | 118 | 0.0 | 2.0 | 0.00 | 0.47 | 0.00 | 90 | 1014.4 |
| 20260906125013 | 65 | 91 | 0.0 | 1.0 | 0.00 | 0.47 | 0.00 | 90 | 1014.3 |
| 20260906124514 | 65 | 90 | 0.0 | 1.0 | 0.00 | 0.47 | 0.00 | 90 | 1014.4 |
| 20260906124013 | 65 | 90 | 0.0 | 3.0 | 0.00 | 0.47 | 0.00 | 90 | 1014.3 |
| 20260906123511 | 65 | 90 | 0.0 | 3.0 | 0.00 | 0.47 | 0.00 | 90 | 1014.2 |
| 20260906123018 | 65 | 173 | 0.0 | 0.0 | 0.00 | 0.47 | 0.00 | 90 | 1014.1 |
| 20260906122510 | 65 | 171 | 0.0 | 0.0 | 0.00 | 0.47 | 0.00 | 90 | 1014.0 |
| 20260906122009 | 65 | 171 | 0.0 | 0.0 | 0.00 | 0.47 | 0.00 | 89 | 1013.9 |
| 20260906121507 | 65 | 171 | 0.0 | 1.0 | 0.00 | 0.47 | 0.00 | 89 | 1013.9 |
| 20260906121007 | 65 | 171 | 0.0 | 1.0 | 0.00 | 0.47 | 0.00 | 89 | 1013.7 |
| 20260906120508 | 65 | 170 | 0.0 | 0.0 | 0.00 | 0.47 | 0.00 | 89 | 1013.7 |
| 20260906120006 | 65 | 170 | 0.0 | 1.0 | 0.00 | 0.47 | 0.00 | 89 | 1013.5 |
| 20260906115505 | 65 | 170 | 0.0 | 1.0 | 0.00 | 0.47 | 0.00 | 90 | 1013.4 |
| 20260906115004 | 65 | 170 | 0.0 | 1.0 | 0.00 | 0.47 | 0.00 | 90 | 1013.5 |
| 20260906114511 | 65 | 170 | 0.0 | 1.0 | 0.00 | 0.47 | 0.00 | 90 | 1013.4 |
| 20260906114003 | 65 | 170 | 0.0 | 1.0 | 0.00 | 0.47 | 0.00 | 90 | 1013.3 |
| 20260906113502 | 65 | 170 | 0.0 | 2.0 | 0.00 | 0.47 | 0.00 | 89 | 1013.3 |
| 20260906113002 | 65 | 170 | 0.0 | 2.0 | 0.00 | 0.47 | 0.00 | 89 | 1013.3 |
| 20260906112501 | 65 | 170 | 0.0 | 1.0 | 0.00 | 0.47 | 0.00 | 89 | 1013.2 |
| 20260906112100 | 65 | 170 | 0.0 | 1.0 | 0.00 | 0.47 | 0.00 | 89 | 1013.2 |
| 20260906111559 | 66 | 170 | 0.0 | 1.0 | 0.00 | 0.47 | 0.00 | 90 | 1013.1 |
| 20260906111058 | 66 | 170 | 0.0 | 3.0 | 0.00 | 0.47 | 0.00 | 90 | 1013.0 |
| 20260906110558 | 66 | 170 | 0.0 | 3.0 | 0.00 | 0.47 | 0.00 | 89 | 1013.0 |
| 20260906110057 | 66 | 177 | 0.0 | 1.0 | 0.00 | 0.47 | 0.00 | 89 | 1013.0 |
| 20260906105556 | 66 | 177 | 0.0 | 1.0 | 0.00 | 0.47 | 0.00 | 89 | 1012.9 |
| 20260906105057 | 66 | 177 | 0.0 | 1.0 | 0.00 | 0.47 | 0.00 | 90 | 1012.9 |
| 20260906104555 | 67 | 177 | 0.0 | 2.0 | 0.00 | 0.47 | 0.00 | 90 | 1012.8 |
| 20260906104054 | 67 | 177 | 0.0 | 2.0 | 0.00 | 0.47 | 0.00 | 90 | 1012.7 |
| 20260906103554 | 67 | 188 | 0.0 | 1.0 | 0.00 | 0.47 | 0.00 | 89 | 1012.6 |
| 20260906103053 | 67 | 188 | 0.0 | 1.0 | 0.00 | 0.47 | 0.00 | 90 | 1012.6 |
| 20260906102552 | 67 | 188 | 0.0 | 1.0 | 0.00 | 0.47 | 0.00 | 90 | 1012.6 |
| 20260906102055 | 67 | 188 | 0.0 | 1.0 | 0.00 | 0.47 | 0.00 | 90 | 1012.5 |
| 20260906101553 | 67 | 188 | 0.0 | 2.0 | 0.00 | 0.47 | 0.00 | 90 | 1012.6 |
| 20260906101052 | 67 | 188 | 0.0 | 2.0 | 0.00 | 0.47 | 0.00 | 90 | 1012.5 |
| 20260906100550 | 67 | 190 | 0.0 | 3.0 | 0.00 | 0.47 | 0.00 | 90 | 1012.4 |
| 20260906100050 | 68 | 190 | 0.0 | 3.0 | 0.00 | 0.47 | 0.00 | 90 | 1012.5 |
| 20260906095548 | 68 | 189 | 0.0 | 3.0 | 0.00 | 0.47 | 0.00 | 90 | 1012.5 |
| 20260906095048 | 68 | 189 | 0.0 | 4.0 | 0.00 | 0.47 | 0.00 | 90 | 1012.4 |
| 20260906094551 | 68 | 103 | 0.0 | 4.0 | 0.00 | 0.47 | 0.00 | 90 | 1012.4 |
| 20260906094047 | 68 | 128 | 0.0 | 3.0 | 0.00 | 0.47 | 0.00 | 90 | 1012.4 |
| 20260906093547 | 68 | 99 | 0.0 | 3.0 | 0.00 | 0.47 | 0.00 | 90 | 1012.2 |
| 20260906093045 | 68 | 85 | 0.0 | 3.0 | 0.00 | 0.47 | 0.00 | 90 | 1012.3 |
| 20260906092545 | 68 | 87 | 0.0 | 3.0 | 0.00 | 0.47 | 0.00 | 89 | 1012.2 |
| 20260906092046 | 69 | 294 | 0.0 | 4.0 | 0.00 | 0.47 | 0.00 | 90 | 1012.1 |
| 20260906091548 | 69 | 296 | 0.0 | 4.0 | 0.00 | 0.47 | 0.00 | 90 | 1012.1 |
| 20260906091043 | 69 | 123 | 0.0 | 3.0 | 0.00 | 0.47 | 0.00 | 90 | 1012.1 |
| 20260906090543 | 69 | 105 | 0.0 | 3.0 | 0.00 | 0.47 | 0.00 | 90 | 1012.0 |
| 20260906090043 | 69 | 116 | 0.0 | 3.0 | 0.00 | 0.47 | 0.00 | 90 | 1012.0 |
| 20260906085543 | 69 | 96 | 0.0 | 3.0 | 0.00 | 0.47 | 0.00 | 90 | 1012.0 |
| 20260906085043 | 70 | 246 | 1.0 | 3.0 | 0.00 | 0.47 | 0.00 | 90 | 1012.0 |
| 20260906084542 | 70 | 290 | 0.0 | 3.0 | 0.00 | 0.47 | 0.00 | 90 | 1011.9 |
| 20260906084042 | 70 | 79 | 0.0 | 3.0 | 0.00 | 0.47 | 0.00 | 90 | 1011.9 |
| 20260906083542 | 70 | 138 | 0.0 | 1.0 | 0.00 | 0.47 | 0.00 | 90 | 1011.9 |
| 20260906083042 | 70 | 137 | 0.0 | 1.0 | 0.00 | 0.47 | 0.00 | 90 | 1012.1 |
| 20260906082541 | 70 | 137 | 0.0 | 3.0 | 0.00 | 0.47 | 0.00 | 90 | 1012.0 |
| 20260906082041 | 70 | 165 | 0.0 | 3.0 | 0.00 | 0.47 | 0.00 | 90 | 1011.9 |
| 20260906081542 | 70 | 178 | 0.0 | 2.0 | 0.00 | 0.47 | 0.00 | 90 | 1011.9 |
| 20260906081043 | 70 | 188 | 0.0 | 2.0 | 0.00 | 0.47 | 0.00 | 90 | 1011.8 |
| 20260906080543 | 70 | 191 | 0.0 | 3.0 | 0.00 | 0.47 | 0.00 | 90 | 1011.7 |
| 20260906080042 | 70 | 80 | 0.0 | 3.0 | 0.00 | 0.47 | 0.00 | 90 | 1011.8 |
| 20260906075541 | 70 | 76 | 0.0 | 3.0 | 0.00 | 0.47 | 0.00 | 90 | 1011.8 |
| 20260906075040 | 70 | 138 | 0.0 | 1.0 | 0.00 | 0.47 | 0.00 | 90 | 1011.8 |
| 20260906074544 | 70 | 138 | 0.0 | 2.0 | 0.00 | 0.47 | 0.00 | 90 | 1011.8 |
| 20260906074040 | 70 | 138 | 0.0 | 2.0 | 0.00 | 0.47 | 0.00 | 90 | 1011.7 |
| 20260906073540 | 70 | 154 | 0.0 | 2.0 | 0.00 | 0.47 | 0.00 | 90 | 1011.7 |
| 20260906073044 | 70 | 136 | 0.0 | 1.0 | 0.00 | 0.47 | 0.00 | 89 | 1011.7 |
| 20260906072542 | 70 | 135 | 0.0 | 4.0 | 0.00 | 0.47 | 0.00 | 89 | 1011.7 |
| 20260906072040 | 70 | 135 | 0.0 | 4.0 | 0.00 | 0.47 | 0.00 | 89 | 1012.0 |
| 20260906071539 | 70 | 131 | 0.0 | 1.0 | 0.00 | 0.47 | 0.00 | 89 | 1012.0 |
| 20260906071040 | 70 | 131 | 0.0 | 1.0 | 0.00 | 0.47 | 0.00 | 89 | 1012.0 |
| 20260906070538 | 70 | 131 | 0.0 | 1.0 | 0.00 | 0.47 | 0.00 | 89 | 1012.0 |
| 20260906070039 | 70 | 131 | 0.0 | 3.0 | 0.00 | 0.47 | 0.00 | 89 | 1012.1 |
| 20260906065541 | 70 | 131 | 0.0 | 3.0 | 0.00 | 0.47 | 0.00 | 89 | 1012.0 |
| 20260906065037 | 70 | 138 | 0.0 | 1.0 | 0.00 | 0.47 | 0.00 | 89 | 1012.0 |
| 20260906064539 | 70 | 138 | 0.0 | 1.0 | 0.00 | 0.47 | 0.00 | 89 | 1012.0 |
| 20260906064038 | 70 | 138 | 0.0 | 0.0 | 0.00 | 0.47 | 0.00 | 89 | 1012.0 |
| 20260906063540 | 70 | 138 | 0.0 | 0.0 | 0.00 | 0.47 | 0.00 | 89 | 1011.9 |
| 20260906063038 | 70 | 138 | 0.0 | 1.0 | 0.00 | 0.47 | 0.00 | 89 | 1011.9 |
| 20260906062537 | 70 | 138 | 0.0 | 0.0 | 0.00 | 0.47 | 0.00 | 89 | 1012.0 |
| 20260906062039 | 70 | 138 | 0.0 | 0.0 | 0.00 | 0.47 | 0.00 | 89 | 1011.9 |
| 20260906061537 | 70 | 138 | 0.0 | 1.0 | 0.00 | 0.47 | 0.00 | 89 | 1011.9 |
| 20260906061036 | 70 | 138 | 0.0 | 1.0 | 0.00 | 0.47 | 0.00 | 89 | 1011.9 |
| 20260906060536 | 70 | 138 | 0.0 | 1.0 | 0.00 | 0.47 | 0.00 | 89 | 1011.9 |
| 20260906060051 | 70 | 138 | 0.0 | 0.0 | 0.00 | 0.47 | 0.00 | 89 | 1012.0 |
| 20260906055536 | 70 | 138 | 0.0 | 2.0 | 0.00 | 0.47 | 0.00 | 89 | 1012.1 |
| 20260906055036 | 70 | 136 | 0.0 | 1.0 | 0.00 | 0.47 | 0.00 | 88 | 1012.0 |
| 20260906054535 | 70 | 136 | 0.0 | 0.0 | 0.00 | 0.47 | 0.00 | 88 | 1012.0 |
| 20260906054036 | 70 | 136 | 0.0 | 0.0 | 0.00 | 0.47 | 0.00 | 88 | 1012.0 |
| 20260906053537 | 70 | 136 | 0.0 | 1.0 | 0.00 | 0.47 | 0.00 | 88 | 1012.1 |
| 20260906053037 | 70 | 136 | 0.0 | 1.0 | 0.00 | 0.47 | 0.00 | 88 | 1012.0 |
| 20260906052536 | 70 | 136 | 0.0 | 0.0 | 0.00 | 0.47 | 0.00 | 88 | 1012.0 |
| 20260906052034 | 70 | 136 | 0.0 | 1.0 | 0.00 | 0.47 | 0.00 | 88 | 1012.0 |
| 20260906051534 | 70 | 136 | 0.0 | 1.0 | 0.00 | 0.47 | 0.00 | 87 | 1011.9 |
| 20260906051032 | 70 | 136 | 0.0 | 1.0 | 0.00 | 0.47 | 0.00 | 87 | 1012.0 |
| 20260906050531 | 69 | 136 | 0.0 | 1.0 | 0.00 | 0.47 | 0.00 | 86 | 1011.9 |
| 20260906050031 | 69 | 136 | 0.0 | 1.0 | 0.00 | 0.47 | 0.00 | 85 | 1011.8 |
| 20260906045531 | 69 | 136 | 0.0 | 1.0 | 0.00 | 0.47 | 0.00 | 85 | 1011.7 |
| 20260906045031 | 69 | 136 | 0.0 | 0.0 | 0.00 | 0.47 | 0.00 | 84 | 1011.7 |
| 20260906044528 | 69 | 136 | 0.0 | 0.0 | 0.00 | 0.47 | 0.00 | 84 | 1011.5 |
| 20260906044026 | 69 | 136 | 0.0 | 0.0 | 0.00 | 0.47 | 0.00 | 83 | 1011.5 |
| 20260906043526 | 69 | 136 | 0.0 | 0.0 | 0.00 | 0.47 | 0.00 | 83 | 1011.4 |
| 20260906043027 | 69 | 136 | 0.0 | 0.0 | 0.00 | 0.47 | 0.00 | 83 | 1011.4 |
| 20260906042526 | 69 | 136 | 0.0 | 0.0 | 0.00 | 0.47 | 0.00 | 83 | 1011.3 |
| 20260906042026 | 69 | 136 | 0.0 | 0.0 | 0.00 | 0.47 | 0.00 | 83 | 1011.3 |
| 20260906041530 | 69 | 136 | 0.0 | 0.0 | 0.00 | 0.47 | 0.00 | 82 | 1011.3 |
| 20260906041025 | 69 | 136 | 0.0 | 0.0 | 0.00 | 0.47 | 0.00 | 82 | 1011.3 |
| 20260906040524 | 69 | 136 | 0.0 | 0.0 | 0.00 | 0.47 | 0.00 | 82 | 1011.3 |
| 20260906040033 | 69 | 136 | 0.0 | 0.0 | 0.00 | 0.47 | 0.00 | 82 | 1011.2 |
| 20260906035528 | 69 | 136 | 0.0 | 0.0 | 0.00 | 0.47 | 0.47 | 82 | 1011.2 |
| 20260906035023 | 69 | 136 | 0.0 | 0.0 | 0.00 | 0.47 | 0.47 | 82 | 1011.1 |
| 20260906034528 | 69 | 136 | 0.0 | 0.0 | 0.00 | 0.47 | 0.47 | 82 | 1011.1 |
| 20260906034022 | 69 | 136 | 0.0 | 0.0 | 0.00 | 0.47 | 0.47 | 82 | 1011.1 |
| 20260906033522 | 69 | 136 | 0.0 | 0.0 | 0.00 | 0.47 | 0.47 | 82 | 1011.1 |
| 20260906033023 | 69 | 136 | 0.0 | 0.0 | 0.00 | 0.47 | 0.47 | 82 | 1011.2 |
| 20260906032523 | 69 | 136 | 0.0 | 0.0 | 0.00 | 0.47 | 0.47 | 82 | 1011.3 |
| 20260906032022 | 69 | 136 | 0.0 | 0.0 | 0.00 | 0.47 | 0.47 | 82 | 1011.3 |
| 20260906031534 | 69 | 136 | 0.0 | 0.0 | 0.00 | 0.47 | 0.47 | 82 | 1011.2 |
| 20260906031022 | 69 | 136 | 0.0 | 0.0 | 0.00 | 0.47 | 0.47 | 82 | 1011.1 |
| 20260906030522 | 69 | 136 | 0.0 | 0.0 | 0.00 | 0.47 | 0.47 | 82 | 1011.2 |
| 20260906030021 | 69 | 136 | 0.0 | 0.0 | 0.00 | 0.47 | 0.47 | 82 | 1011.2 |
| 20260906025526 | 69 | 136 | 0.0 | 0.0 | 0.00 | 0.47 | 0.47 | 82 | 1011.2 |
| 20260906025021 | 70 | 136 | 0.0 | 0.0 | 0.00 | 0.47 | 0.47 | 82 | 1011.2 |
| 20260906024520 | 70 | 136 | 0.0 | 0.0 | 0.00 | 0.47 | 0.47 | 82 | 1011.2 |
| 20260906024020 | 70 | 136 | 0.0 | 0.0 | 0.00 | 0.47 | 0.47 | 82 | 1011.2 |
| 20260906023520 | 70 | 136 | 0.0 | 0.0 | 0.00 | 0.47 | 0.47 | 82 | 1011.5 |
| 20260906023020 | 70 | 136 | 0.0 | 0.0 | 0.00 | 0.47 | 0.47 | 81 | 1011.2 |
| 20260906022520 | 70 | 136 | 0.0 | 0.0 | 0.00 | 0.47 | 0.47 | 81 | 1011.1 |
| 20260906022020 | 70 | 136 | 0.0 | 1.0 | 0.00 | 0.47 | 0.47 | 81 | 1011.1 |
| 20260906021620 | 70 | 136 | 0.0 | 1.0 | 0.00 | 0.47 | 0.47 | 81 | 1011.2 |
| 20260906021022 | 70 | 136 | 0.0 | 1.0 | 0.00 | 0.47 | 0.47 | 80 | 1011.4 |
| 20260906020519 | 70 | 136 | 0.0 | 1.0 | 0.00 | 0.47 | 0.47 | 80 | 1011.5 |
| 20260906020018 | 70 | 136 | 0.0 | 1.0 | 0.00 | 0.47 | 0.47 | 80 | 1011.5 |
| 20260906015518 | 70 | 136 | 0.0 | 1.0 | 0.00 | 0.47 | 0.47 | 80 | 1011.4 |
| 20260906015019 | 70 | 136 | 0.0 | 0.0 | 0.00 | 0.47 | 0.47 | 79 | 1011.7 |
| 20260906014524 | 70 | 136 | 0.0 | 1.0 | 0.00 | 0.47 | 0.47 | 79 | 1011.4 |
| 20260906014021 | 70 | 136 | 0.0 | 1.0 | 0.00 | 0.47 | 0.47 | 78 | 1011.7 |
| 20260906013519 | 70 | 136 | 0.0 | 1.0 | 0.01 | 0.47 | 0.47 | 78 | 1011.5 |
| 20260906013018 | 70 | 136 | 0.0 | 1.0 | 0.01 | 0.47 | 0.47 | 77 | 1011.4 |
| 20260906012517 | 70 | 136 | 0.0 | 0.0 | 0.01 | 0.47 | 0.47 | 77 | 1011.7 |
| 20260906012020 | 70 | 136 | 0.0 | 0.0 | 0.01 | 0.47 | 0.47 | 76 | 1011.9 |
| 20260906011517 | 70 | 136 | 0.0 | 0.0 | 0.01 | 0.47 | 0.47 | 76 | 1011.5 |
| 20260906011017 | 70 | 136 | 0.0 | 0.0 | 0.01 | 0.47 | 0.47 | 75 | 1011.2 |
| 20260906010616 | 70 | 136 | 0.0 | 0.0 | 0.01 | 0.47 | 0.47 | 75 | 1011.1 |
| 20260906010016 | 70 | 136 | 0.0 | 1.0 | 0.01 | 0.47 | 0.47 | 75 | 1010.7 |
| 20260906005516 | 71 | 136 | 0.0 | 1.0 | 0.01 | 0.47 | 0.47 | 75 | 1010.7 |
| 20260906005016 | 71 | 136 | 0.0 | 1.0 | 0.02 | 0.47 | 0.47 | 74 | 1010.9 |
| 20260906004516 | 71 | 136 | 0.0 | 1.0 | 0.08 | 0.47 | 0.47 | 74 | 1010.5 |
| 20260906004016 | 71 | 135 | 0.0 | 1.0 | 0.24 | 0.47 | 0.47 | 73 | 1010.3 |
| 20260906003516 | 71 | 136 | 0.0 | 0.0 | 0.37 | 0.46 | 0.46 | 73 | 1010.3 |
| 20260906003016 | 71 | 136 | 0.0 | 1.0 | 0.46 | 0.46 | 0.46 | 73 | 1010.2 |
| 20260906002515 | 72 | 136 | 0.0 | 1.0 | 0.46 | 0.46 | 0.46 | 73 | 1010.2 |
| 20260906002016 | 72 | 136 | 0.0 | 1.0 | 0.46 | 0.46 | 0.46 | 72 | 1010.3 |
| 20260906001515 | 72 | 135 | 0.0 | 1.0 | 0.46 | 0.46 | 0.46 | 72 | 1010.2 |
| 20260906001020 | 73 | 136 | 0.0 | 1.0 | 0.46 | 0.46 | 0.46 | 71 | 1010.2 |
| 20260906000515 | 73 | 136 | 0.0 | 0.0 | 0.46 | 0.46 | 0.46 | 71 | 1010.1 |
| 20260906000015 | 73 | 136 | 0.0 | 1.0 | 0.46 | 0.46 | 0.46 | 70 | 1010.2 |
| 20260905235514 | 74 | 136 | 0.0 | 2.0 | 0.46 | 0.46 | 0.46 | 69 | 1010.3 |
| 20260905235016 | 75 | 134 | 0.0 | 3.0 | 0.45 | 0.45 | 0.45 | 68 | 1010.5 |
| 20260905234514 | 76 | 190 | 0.0 | 4.0 | 0.39 | 0.39 | 0.39 | 66 | 1010.8 |
| 20260905234015 | 78 | 303 | 1.0 | 6.0 | 0.23 | 0.23 | 0.23 | 65 | 1011.0 |
| 20260905233513 | 80 | 323 | 2.0 | 12.0 | 0.09 | 0.09 | 0.09 | 63 | 1011.2 |
| 20260905233017 | 82 | 313 | 2.0 | 12.0 | 0.00 | 0.00 | 0.00 | 63 | 1011.3 |
| 20260905232513 | 83 | 93 | 0.0 | 0.0 | 0.00 | 0.00 | 0.00 | 67 | 1010.2 |
| 20260905232013 | 83 | 94 | 0.0 | 0.0 | 0.00 | 0.00 | 0.00 | 66 | 1009.8 |
| 20260905231512 | 84 | 94 | 0.0 | 0.0 | 0.00 | 0.00 | 0.00 | 66 | 1009.9 |
| 20260905231012 | 84 | 94 | 0.0 | 0.0 | 0.00 | 0.00 | 0.00 | 65 | 1009.8 |
| 20260905230512 | 84 | 94 | 0.0 | 0.0 | 0.00 | 0.00 | 0.00 | 65 | 1009.9 |
| 20260905230012 | 84 | 94 | 0.0 | 0.0 | 0.00 | 0.00 | 0.00 | 65 | 1009.5 |
| 20260905225512 | 85 | 94 | 0.0 | 0.0 | 0.00 | 0.00 | 0.00 | 65 | 1009.4 |
| 20260905225011 | 85 | 94 | 0.0 | 0.0 | 0.00 | 0.00 | 0.00 | 64 | 1009.6 |
| 20260905224512 | 85 | 94 | 0.0 | 0.0 | 0.00 | 0.00 | 0.00 | 64 | 1009.7 |
| 20260905224014 | 85 | 94 | 0.0 | 0.0 | 0.00 | 0.00 | 0.00 | 63 | 1009.6 |
| 20260905223511 | 86 | 94 | 0.0 | 0.0 | 0.00 | 0.00 | 0.00 | 63 | 1009.7 |
| 20260905223011 | 86 | 94 | 0.0 | 0.0 | 0.00 | 0.00 | 0.00 | 62 | 1009.7 |
| 20260905222511 | 86 | 94 | 0.0 | 0.0 | 0.00 | 0.00 | 0.00 | 61 | 1009.5 |